Sigfox identifier Datetime Temperature Humidity SNR
002F8D55 2019-04-23 15:12:36 16 32 21.5
002F8D55 2019-04-23 14:40:46 16 32 21.3
002F8D55 2019-04-23 14:08:56 16 32 21.1
002F8D55 2019-04-23 13:37:05 15.9 32 20.5
002F8D55 2019-04-23 13:05:15 15.8 32 20.2
002F8D55 2019-04-23 12:33:24 15.8 32 20.1
002F8D55 2019-04-23 12:01:34 15.8 32 19.8
002F8D55 2019-04-23 11:29:44 15.8 31 19
002F8D55 2019-04-23 10:57:53 15.8 32 18.1
002F8D55 2019-04-23 10:26:04 15.8 31 16.7
002F8D55 2019-04-23 09:54:14 15.8 31 15.6
002F8D55 2019-04-23 09:22:24 15.8 31 14.1
002F8D55 2019-04-23 08:50:34 15.8 31 13.2
002F8D55 2019-04-23 08:18:44 15.8 31 10.4
002F8D55 2019-04-23 07:46:53 15.8 31 10.5
002F8D55 2019-04-23 06:43:14 15.8 31 10.6
002F8D55 2019-04-23 06:11:26 15.8 31 10.6
002F8D55 2019-04-23 04:35:57 15.8 31 10.8
002F8D55 2019-04-23 04:04:03 15.8 31 11.1
002F8D55 2019-04-23 03:32:17 15.8 31 11.1
002F8D55 2019-04-23 03:00:21 15.8 31 11.2
002F8D55 2019-04-23 01:24:51 15.9 31 11.2
002F8D55 2019-04-22 23:49:24 15.9 31 11.3
002F8D55 2019-04-22 23:17:35 16 31 11.3
002F8D55 2019-04-22 22:13:54 16 31 11.3
002F8D55 2019-04-22 21:42:05 16 31 11.2
002F8D55 2019-04-22 21:10:16 16 31 11.1
002F8D55 2019-04-22 20:38:27 16 31 10.9
002F8D55 2019-04-22 20:06:38 16 31 10.8
002F8D55 2019-04-22 19:34:51 16 31 10.7
002F8D55 2019-04-22 19:03:00 16 31 10.5
002F8D55 2019-04-22 18:31:12 16 31 10.2
002F8D55 2019-04-22 17:59:23 15.9 31 9.9
002F8D55 2019-04-22 17:27:34 15.9 31 16.9
002F8D55 2019-04-22 16:55:45 15.9 31 16.9
002F8D55 2019-04-22 16:23:57 15.8 31 16.9
002F8D55 2019-04-22 15:52:05 15.8 31 16.9
002F8D55 2019-04-22 15:20:19 15.8 31 17
002F8D55 2019-04-22 14:48:26 15.8 31 17
002F8D55 2019-04-22 14:16:37 15.8 31 17.1
002F8D55 2019-04-22 13:44:49 15.8 31 17.1
002F8D55 2019-04-22 13:12:57 15.8 31 17.1
002F8D55 2019-04-22 12:41:07 15.8 31 17.2
002F8D55 2019-04-22 12:09:18 15.8 31 17.1
002F8D55 2019-04-22 11:37:29 15.8 31 17.2
002F8D55 2019-04-22 11:05:39 15.8 31 17.3
002F8D55 2019-04-22 10:33:49 15.8 31 17.3
002F8D55 2019-04-22 10:02:01 15.8 31 17.3
002F8D55 2019-04-22 09:30:16 15.8 31 17.3
002F8D55 2019-04-22 08:58:22 15.7 31 17.4
002F8D55 2019-04-22 08:26:34 15.7 30 17.4
002F8D55 2019-04-22 07:54:47 15.8 31 17.4
002F8D55 2019-04-22 07:22:56 15.8 30 17.5
002F8D55 2019-04-22 06:51:08 15.8 30 17.5
002F8D55 2019-04-22 05:47:33 15.6 30 17.5
002F8D55 2019-04-22 05:15:45 15.7 30 17.6
002F8D55 2019-04-22 03:40:14 15.6 30 17.6
002F8D55 2019-04-22 01:32:59 15.6 30 17.7
002F8D55 2019-04-22 01:01:05 15.6 30 12.9
002F8D55 2019-04-21 22:22:00 15.6 30 12.9
002F8D55 2019-04-21 20:14:37 15.6 30 12.9
002F8D55 2019-04-21 19:42:48 15.6 30 12.6
002F8D55 2019-04-21 19:11:00 15.6 30 12.5
002F8D55 2019-04-21 18:39:09 15.6 30 12.3
002F8D55 2019-04-21 18:07:20 15.6 30 12
002F8D55 2019-04-21 17:35:31 15.6 30 11.8
002F8D55 2019-04-21 17:03:43 15.6 30 11.7
002F8D55 2019-04-21 16:31:54 15.6 30 11.4
002F8D55 2019-04-21 16:00:05 15.6 30 11.2
002F8D55 2019-04-21 15:28:16 15.6 30 10.9
002F8D55 2019-04-21 14:56:27 15.6 30 10.7
002F8D55 2019-04-21 14:24:39 15.6 30 10.6
002F8D55 2019-04-21 13:52:52 15.6 30 10.4
002F8D55 2019-04-21 13:21:06 15.7 30 10.3
002F8D55 2019-04-21 12:49:15 15.7 30 10.3
002F8D55 2019-04-21 12:17:27 15.7 30 10.4
002F8D55 2019-04-21 11:45:40 15.8 30 10.5
002F8D55 2019-04-21 11:13:50 15.8 30 10.6
002F8D55 2019-04-21 10:42:01 15.8 30 10.8
002F8D55 2019-04-21 10:10:13 15.8 29 11.1
002F8D55 2019-04-21 09:38:27 15.8 29 11.3
002F8D55 2019-04-21 09:06:37 15.8 29 11.7
002F8D55 2019-04-21 08:34:48 15.8 29 11.9
002F8D55 2019-04-21 08:03:01 15.8 29 11.6
002F8D55 2019-04-21 07:31:09 15.8 29 11.7
002F8D55 2019-04-21 06:59:24 15.8 29 12.5
002F8D55 2019-04-21 06:27:31 15.8 29 12.7
002F8D55 2019-04-21 05:23:56 15.8 29 12.8
002F8D55 2019-04-21 04:20:19 15.8 29 13.3
002F8D55 2019-04-21 03:16:43 15.8 29 13.5
002F8D55 2019-04-21 02:13:03 15.8 29 13.6
002F8D55 2019-04-21 01:09:31 15.8 29 13.9
002F8D55 2019-04-21 00:37:43 15.8 29 14
002F8D55 2019-04-20 23:02:19 15.8 29 14
002F8D55 2019-04-20 20:55:01 15.8 29 14.1
002F8D55 2019-04-20 20:23:15 15.8 29 18.1
002F8D55 2019-04-20 19:51:25 15.8 29 18.1
002F8D55 2019-04-20 19:19:36 15.8 29 18.1
002F8D55 2019-04-20 18:47:47 15.8 29 18.1
002F8D55 2019-04-20 18:15:58 15.8 29 18.1
002F8D55 2019-04-20 17:44:10 15.8 29 18.1
002F8D55 2019-04-20 17:12:21 15.8 29 18
002F8D55 2019-04-20 16:40:33 15.8 29 18
002F8D55 2019-04-20 16:08:44 15.8 29 17.9
002F8D55 2019-04-20 15:36:58 15.8 29 17.8
002F8D55 2019-04-20 15:05:07 15.8 29 17.7
002F8D55 2019-04-20 14:33:19 15.8 29 17.6
002F8D55 2019-04-20 14:01:32 15.8 29 17.6
002F8D55 2019-04-20 13:29:40 15.8 28 17.6
002F8D55 2019-04-20 12:57:51 15.8 28 17.5
002F8D55 2019-04-20 12:26:03 15.8 28 17.4
002F8D55 2019-04-20 11:54:14 15.8 28 17.4
002F8D55 2019-04-20 11:22:25 15.9 28 17.4
002F8D55 2019-04-20 10:50:37 15.9 28 17.4
002F8D55 2019-04-20 10:18:50 15.9 28 17.4
002F8D55 2019-04-20 09:47:03 16 28 17.5
002F8D55 2019-04-20 09:15:14 16 28 17.4
002F8D55 2019-04-20 08:43:26 16 28 17.5
002F8D55 2019-04-20 08:11:39 16 28 17.5
002F8D55 2019-04-20 07:39:48 16 28 17.7
002F8D55 2019-04-20 06:36:10 16 28 12.9
002F8D55 2019-04-20 06:04:21 16 28 13.6
002F8D55 2019-04-20 05:32:34 16 28 13.7
002F8D55 2019-04-20 05:00:42 16 28 13.7
002F8D55 2019-04-20 04:28:54 16 28 13.8
002F8D55 2019-04-20 03:57:06 16 28 14.1
002F8D55 2019-04-20 03:25:18 16.1 28 14.3
002F8D55 2019-04-20 02:53:29 16.2 28 14.4
002F8D55 2019-04-20 01:18:08 16.2 28 14.5
002F8D55 2019-04-19 23:10:52 16.3 28 14.6
002F8D55 2019-04-19 22:39:06 16.3 28 14.7
002F8D55 2019-04-19 22:07:15 16.2 28 14.8
002F8D55 2019-04-19 21:35:25 16.2 28 14.9
002F8D55 2019-04-19 21:03:36 16.3 28 14.9
002F8D55 2019-04-19 20:31:48 16.3 28 14.9
002F8D55 2019-04-19 19:59:59 16.2 28 14.8
002F8D55 2019-04-19 19:28:10 16.3 28 14.8
002F8D55 2019-04-19 18:56:23 16.3 28 14.7
002F8D55 2019-04-19 18:24:32 16.2 28 14.4
002F8D55 2019-04-19 17:52:44 16.3 28 14.2
002F8D55 2019-04-19 17:20:56 16.3 28 14.1
002F8D55 2019-04-19 16:49:07 16.3 28 14
002F8D55 2019-04-19 16:17:19 16.3 27 13.9
002F8D55 2019-04-19 15:45:32 16.3 27 13.6
002F8D55 2019-04-19 15:13:43 16.2 27 13.2
002F8D55 2019-04-19 14:41:55 16.2 27 13
002F8D55 2019-04-19 14:10:07 16.2 27 12.3
002F8D55 2019-04-19 13:38:18 16.2 27 12.1
002F8D55 2019-04-19 13:06:30 16.3 27 12
002F8D55 2019-04-19 12:02:52 16.1 27 11.8
002F8D55 2019-04-19 11:31:02 16.2 27 11.3
002F8D55 2019-04-19 10:59:12 16.3 27 10.9
002F8D55 2019-04-19 10:27:22 16.3 27 12.5
002F8D55 2019-04-19 09:55:33 16.3 27 13.1
002F8D55 2019-04-19 09:23:45 16.3 27 14.4
002F8D55 2019-04-19 08:51:53 16.3 27 14.6
002F8D55 2019-04-19 08:20:03 16.3 27 15.2
002F8D55 2019-04-19 07:48:13 16.2 27 15.9
002F8D55 2019-04-19 07:16:25 16.2 27 17.5
002F8D55 2019-04-19 06:44:34 16.3 27 18.5
002F8D55 2019-04-19 06:12:44 16.4 27 19.3
002F8D55 2019-04-19 05:40:56 16.5 27 19.6
002F8D55 2019-04-19 05:09:08 16.5 27 20.2
002F8D55 2019-04-19 04:37:20 16.5 27 20.7
002F8D55 2019-04-19 04:05:32 16.5 27 21.3
002F8D55 2019-04-19 03:33:44 16.5 27 21.7
002F8D55 2019-04-19 03:01:56 16.5 27 22.2
002F8D55 2019-04-19 02:30:11 16.6 27 22.5
002F8D55 2019-04-19 01:58:22 16.7 27 22.7
002F8D55 2019-04-19 00:22:57 16.7 27 22.9
002F8D55 2019-04-18 23:51:09 16.7 27 23
002F8D55 2019-04-18 23:19:20 16.7 26 23.2
002F8D55 2019-04-18 22:47:34 16.7 26 23.2
002F8D55 2019-04-18 21:12:12 16.7 26 23.3
002F8D55 2019-04-18 20:40:22 16.7 26 23.4
002F8D55 2019-04-18 20:08:34 16.7 26 23.4
002F8D55 2019-04-18 19:36:48 16.7 26 23.4
002F8D55 2019-04-18 19:05:00 16.7 26 23.3
002F8D55 2019-04-18 18:33:12 16.7 26 23.3
002F8D55 2019-04-18 18:01:24 16.7 26 23.1
002F8D55 2019-04-18 17:29:37 16.7 26 23.1
002F8D55 2019-04-18 16:57:51 16.6 26 23.1
002F8D55 2019-04-18 16:26:04 16.5 26 23
002F8D55 2019-04-18 15:54:16 16.5 26 22.6
002F8D55 2019-04-18 15:22:28 16.5 26 22.3
002F8D55 2019-04-18 14:50:40 16.5 26 21.9
002F8D55 2019-04-18 14:18:53 16.5 26 21.7
002F8D55 2019-04-18 13:47:05 16.5 26 21.4
002F8D55 2019-04-18 13:15:17 16.5 26 20.9
002F8D55 2019-04-18 12:43:30 16.5 26 20.3
002F8D55 2019-04-18 12:11:42 16.6 26 19.8
002F8D55 2019-04-18 11:39:55 16.6 26 19
002F8D55 2019-04-18 11:08:08 16.5 25 18.5
002F8D55 2019-04-18 10:36:19 16.6 25 18.2
002F8D55 2019-04-18 10:04:32 16.6 25 17.7
002F8D55 2019-04-18 09:32:45 16.7 25 17.6
002F8D55 2019-04-18 09:00:59 16.7 25 17.2
002F8D55 2019-04-18 08:29:12 16.7 25 17.5
002F8D55 2019-04-18 07:57:25 16.7 25 17.6
002F8D55 2019-04-18 07:25:39 16.7 25 17.9
002F8D55 2019-04-18 06:53:52 16.7 25 18.3
002F8D55 2019-04-18 06:22:04 16.7 25 18.5
002F8D55 2019-04-18 05:50:16 16.7 25 18.6
002F8D55 2019-04-18 05:18:29 16.7 25 18.7
002F8D55 2019-04-18 04:46:44 16.9 25 18.8
002F8D55 2019-04-18 04:14:55 16.9 25 18.8
002F8D55 2019-04-18 03:43:08 16.9 25 18.7
002F8D55 2019-04-18 03:11:21 16.9 25 19.4
002F8D55 2019-04-18 02:39:37 17 25 19.5
002F8D55 2019-04-18 02:07:48 17.1 25 19.6
002F8D55 2019-04-18 01:36:03 17.1 25 19.8
002F8D55 2019-04-18 01:04:14 17.1 25 19.7
002F8D55 2019-04-18 00:32:27 17.1 25 19.8
002F8D55 2019-04-18 00:00:41 17.1 25 20
002F8D55 2019-04-17 23:28:53 17.1 25 20.1
002F8D55 2019-04-17 22:57:06 17.2 25 20.2
002F8D55 2019-04-17 22:25:19 17.1 25 20.2
002F8D55 2019-04-17 21:53:32 17.1 24 20.1
002F8D55 2019-04-17 21:21:46 17.1 24 20.2
002F8D55 2019-04-17 20:50:00 17.3 24 20.2
002F8D55 2019-04-17 20:18:14 17.3 24 20.2
002F8D55 2019-04-17 19:46:26 17.3 24 20.2
002F8D55 2019-04-17 19:14:39 17.3 24 20.2
002F8D55 2019-04-17 18:42:50 17.3 24 20.1
002F8D55 2019-04-17 18:11:03 17.3 24 20.2
002F8D55 2019-04-17 17:39:15 17.3 24 20.5
002F8D55 2019-04-17 17:07:27 17.4 24 20.5
002F8D55 2019-04-17 16:35:41 17.5 24 20.7
002F8D55 2019-04-17 16:03:54 17.5 24 21.1
002F8D55 2019-04-17 15:32:07 17.5 24 21.1
002F8D55 2019-04-17 15:00:21 17.5 24 21.3
002F8D55 2019-04-17 14:28:34 17.6 24 21.5
002F8D55 2019-04-17 13:56:48 17.8 24 21.3
002F8D55 2019-04-17 12:53:13 17.8 24 21.4
002F8D55 2019-04-17 12:21:25 17.7 24 21.6
002F8D55 2019-04-17 11:49:39 17.8 23 21.6
002F8D55 2019-04-17 11:17:51 18 23 21.5
002F8D55 2019-04-17 10:46:05 17.9 23 22.5
002F8D55 2019-04-17 10:14:18 18 23 22.4
002F8D55 2019-04-17 09:42:31 18.2 23 22.4
002F8D55 2019-04-17 09:10:44 18.2 23 22.3
002F8D55 2019-04-17 08:38:57 18.2 23 22.2
002F8D55 2019-04-17 08:07:10 18.4 23 22.2
002F8D55 2019-04-17 07:35:22 18.4 23 22.1
002F8D55 2019-04-17 07:03:37 18.5 23 22.1
002F8D55 2019-04-17 06:31:51 18.6 23 21.9
002F8D55 2019-04-17 06:00:03 18.6 23 21.9
002F8D55 2019-04-17 05:28:16 18.6 23 22.8
002F8D55 2019-04-17 04:56:29 18.7 23 22.7
002F8D55 2019-04-17 04:24:42 18.8 23 22.8
002F8D55 2019-04-17 03:52:56 18.8 23 22.4
002F8D55 2019-04-17 03:21:09 18.9 23 22.3
002F8D55 2019-04-17 02:49:23 19 23 22.1
002F8D55 2019-04-17 02:17:37 19 23 21.7
002F8D55 2019-04-17 01:45:52 19.1 23 21.6
002F8D55 2019-04-17 01:14:07 19.2 22 21.5
002F8D55 2019-04-17 00:42:21 19.2 22 21.3
002F8D55 2019-04-17 00:10:37 19.4 22 21.1
002F8D55 2019-04-16 23:38:50 19.5 22 20.9
002F8D55 2019-04-16 23:07:04 19.5 22 20.6
002F8D55 2019-04-16 22:35:18 19.7 22 20.7
002F8D55 2019-04-16 22:03:32 19.7 22 20.7
002F8D55 2019-04-16 21:31:47 19.8 22 18.8
002F8D55 2019-04-16 21:00:02 19.9 22 19
002F8D55 2019-04-16 20:28:16 20 22 18.9
002F8D55 2019-04-16 19:56:31 20.1 22 18.9
002F8D55 2019-04-16 19:24:46 20.1 22 18.9
002F8D55 2019-04-16 18:53:01 20.3 22 18.9
002F8D55 2019-04-16 18:21:15 20.3 22 19.2
002F8D55 2019-04-16 17:49:30 20.5 22 19.2
002F8D55 2019-04-16 17:17:45 20.5 22 19.5
002F8D55 2019-04-16 16:46:00 20.7 22 19.7
002F8D55 2019-04-16 16:14:14 20.7 22 17.6
002F8D55 2019-04-16 15:10:43 20.9 22 17.6
002F8D55 2019-04-16 14:38:57 21.1 22 17
002F8D55 2019-04-16 13:35:30 21.1 22 17.1
002F8D55 2019-04-16 13:03:43 21.2 22 17.5
002F8D55 2019-04-16 12:32:01 21.1 22 17.5
002F8D55 2019-04-16 12:00:15 21 22 17.7
002F8D55 2019-04-16 11:28:30 21 22 18
002F8D55 2019-04-16 10:56:42 21 22 18.2
002F8D55 2019-04-16 10:24:56 21 22 18.2
002F8D55 2019-04-16 09:53:15 21 22 18.3
002F8D55 2019-04-16 09:21:27 21 22 18.4
002F8D55 2019-04-16 08:49:43 21 22 18.4
002F8D55 2019-04-16 08:17:56 20.9 22 18.3
002F8D55 2019-04-16 07:46:14 20.9 22 18.4
002F8D55 2019-04-16 07:14:27 21 22 18.7
002F8D55 2019-04-16 06:42:42 21 22 18.8
002F8D55 2019-04-16 06:10:56 20.9 22 18.7
002F8D55 2019-04-16 05:39:12 20.9 22 18.9
002F8D55 2019-04-16 05:07:29 21 21 19
002F8D55 2019-04-16 04:35:42 21 21 18.8
002F8D55 2019-04-16 04:03:57 21 21 18.7
002F8D55 2019-04-16 03:32:12 21.1 21 18.3
002F8D55 2019-04-16 03:00:27 21.1 21 18
002F8D55 2019-04-16 02:28:43 21.2 21 17.8
002F8D55 2019-04-16 01:56:58 21.2 21 18.8
002F8D55 2019-04-16 01:25:14 21.1 21 19.5
002F8D55 2019-04-16 00:53:29 21.2 21 20
002F8D55 2019-04-16 00:21:45 21.2 21 19.9
002F8D55 2019-04-15 23:50:02 21.1 21 20.1
002F8D55 2019-04-15 23:18:17 21.2 20 21.4
002F8D55 2019-04-15 22:46:31 21.2 20 22.4
002F8D55 2019-04-15 22:14:46 21.3 20 22.4
002F8D55 2019-04-15 21:43:02 21.4 20 22.4
002F8D55 2019-04-15 21:11:18 21.4 20 22.6
002F8D55 2019-04-15 20:39:35 21.4 20 22.9
002F8D55 2019-04-15 20:07:52 21.4 20 23.2
002F8D55 2019-04-15 19:36:08 21.5 20 23.5
002F8D55 2019-04-15 19:04:24 21.5 19 23.6
002F8D55 2019-04-15 18:32:41 21.6 19 23.8
002F8D55 2019-04-15 18:00:58 21.6 19 23.9
002F8D55 2019-04-15 17:29:15 21.8 19 24.2
002F8D55 2019-04-15 16:57:31 21.8 19 24.3
002F8D55 2019-04-15 16:25:47 21.8 19 24.9
002F8D55 2019-04-15 15:54:02 22 18 25.4
002F8D55 2019-04-15 15:22:16 22 18 25.4
002F8D55 2019-04-15 14:18:51 22.2 18 25.6
002F8D55 2019-04-15 13:47:08 22.3 18 25.7
002F8D55 2019-04-15 13:15:22 22.4 17 26
002F8D55 2019-04-15 12:43:38 22.4 17 26
002F8D55 2019-04-15 12:11:54 22.7 17 26
002F8D55 2019-04-15 11:40:11 22.5 16 26
002F8D55 2019-04-15 11:08:26 22.4 16 26
002F8D55 2019-04-15 10:36:42 22.4 17 26.1
002F8D55 2019-04-15 10:04:58 22.5 17 26.1
002F8D55 2019-04-15 09:33:13 22.4 17 25.8
002F8D55 2019-04-15 09:01:29 22.2 17 25.6
002F8D55 2019-04-15 08:29:45 22.2 17 25.7
002F8D55 2019-04-15 07:57:59 22.2 17 25.8
002F8D55 2019-04-15 07:26:15 22 17 25.7
002F8D55 2019-04-15 06:54:30 22.1 17 25.6
002F8D55 2019-04-15 06:22:45 22 17 25.6
002F8D55 2019-04-15 05:51:00 22 17 25.5
002F8D55 2019-04-15 05:19:15 22 17 25.6
002F8D55 2019-04-15 04:47:31 22 17 25.5
002F8D55 2019-04-15 04:15:47 22 17 25.5
002F8D55 2019-04-15 03:44:02 22 17 25.4
002F8D55 2019-04-15 03:12:18 22 18 25.3
002F8D55 2019-04-15 02:40:33 22 18 24.9
002F8D55 2019-04-15 02:08:50 22 18 24.6
002F8D55 2019-04-15 01:37:05 22 18 24.6
002F8D55 2019-04-15 01:05:21 22 18 24.5
002F8D55 2019-04-15 00:33:37 22 18 24.5
002F8D55 2019-04-15 00:01:54 22 18 24.4
002F8D55 2019-04-14 23:30:10 22 18 24.4
002F8D55 2019-04-14 22:58:26 22 18 24.3
002F8D55 2019-04-14 22:26:43 22 18 24.3
002F8D55 2019-04-14 21:55:01 22.1 18 24.3
002F8D55 2019-04-14 21:23:18 22.2 18 24.4
002F8D55 2019-04-14 20:51:34 22.2 18 24.5
002F8D55 2019-04-14 20:19:52 22.2 18 24.6
002F8D55 2019-04-14 19:48:09 22.2 18 24.6
002F8D55 2019-04-14 19:16:26 22.2 18 24.6
002F8D55 2019-04-14 18:44:43 22.2 18 24.6
002F8D55 2019-04-14 18:12:59 22.1 18 24.7
002F8D55 2019-04-14 17:41:15 22.1 18 24.7
002F8D55 2019-04-14 17:09:30 22.1 18 24.6
002F8D55 2019-04-14 16:37:46 22.1 18 24.6
002F8D55 2019-04-14 16:06:03 22.1 18 24.5
002F8D55 2019-04-14 15:34:20 22 18 24.5
002F8D55 2019-04-14 15:02:36 22.1 18 24.6
002F8D55 2019-04-14 14:30:52 22.1 18 24.6
002F8D55 2019-04-14 13:59:07 22.2 18 24.7
002F8D55 2019-04-14 13:27:25 22.1 18 24.7
002F8D55 2019-04-14 12:55:42 22.1 18 24.6
002F8D55 2019-04-14 12:23:58 22.1 19 24.7
002F8D55 2019-04-14 11:52:14 22.1 18 24.8
002F8D55 2019-04-14 11:20:31 22.1 19 24.9
002F8D55 2019-04-14 10:48:47 22.1 19 24.9
002F8D55 2019-04-14 10:17:04 22.1 18 24.9
002F8D55 2019-04-14 09:45:20 22 18 24.9
002F8D55 2019-04-14 09:13:35 22.2 18 25.3
002F8D55 2019-04-14 08:41:51 22 18 25.3
002F8D55 2019-04-14 08:10:06 22.1 18 25.4
002F8D55 2019-04-14 07:38:20 22.1 18 25.3
002F8D55 2019-04-14 07:06:36 22 18 25.2
002F8D55 2019-04-14 06:34:51 22 18 25.2
002F8D55 2019-04-14 06:03:04 22 18 25.1
002F8D55 2019-04-14 05:31:19 22 18 25.1
002F8D55 2019-04-14 04:59:33 22.1 18 25.1
002F8D55 2019-04-14 04:27:48 22 18 25.1
002F8D55 2019-04-14 03:56:03 22.2 18 25.1
002F8D55 2019-04-14 03:24:18 22.2 18 25.2
002F8D55 2019-04-14 02:52:34 22.2 18 25.1
002F8D55 2019-04-14 02:20:48 22.2 18 25.2
002F8D55 2019-04-14 01:49:03 22.2 18 25.1
002F8D55 2019-04-14 01:17:16 22.2 18 25
002F8D55 2019-04-14 00:45:31 22.2 18 25.1
002F8D55 2019-04-14 00:13:45 22.2 18 25.2
002F8D55 2019-04-13 23:42:00 22.2 18 25.2
002F8D55 2019-04-13 23:10:15 22.2 18 25.2
002F8D55 2019-04-13 22:38:29 22.2 18 25.1
002F8D55 2019-04-13 22:06:44 22.2 18 25
002F8D55 2019-04-13 21:34:59 22.2 18 25
002F8D55 2019-04-13 21:03:12 22.3 18 25.1
002F8D55 2019-04-13 20:31:27 22.2 18 25
002F8D55 2019-04-13 19:59:42 22.3 18 24.6
002F8D55 2019-04-13 19:27:56 22.4 18 24.4
002F8D55 2019-04-13 18:56:11 22.4 18 24.1
002F8D55 2019-04-13 18:24:25 22.4 18 23.9
002F8D55 2019-04-13 17:52:40 22.4 18 23.9
002F8D55 2019-04-13 17:20:54 22.5 18 23.7
002F8D55 2019-04-13 16:49:09 22.5 18 23.7
002F8D55 2019-04-13 16:17:23 22.4 18 23.9
002F8D55 2019-04-13 15:45:38 22.4 18 23.7
002F8D55 2019-04-13 15:13:53 22.4 18 23.5
002F8D55 2019-04-13 14:42:09 22.4 18 23.5
002F8D55 2019-04-13 14:10:23 22.4 18 23.4
002F8D55 2019-04-13 13:38:38 22.5 18 23.4
002F8D55 2019-04-13 13:06:52 22.5 18 23.2
002F8D55 2019-04-13 12:35:08 22.5 18 23.9
002F8D55 2019-04-13 12:03:22 22.5 18 23.8
002F8D55 2019-04-13 11:31:39 22.5 18 23.7
002F8D55 2019-04-13 10:59:54 22.5 18 23.6
002F8D55 2019-04-13 10:28:09 22.4 18 23.5
002F8D55 2019-04-13 09:56:25 22.5 18 23.4
002F8D55 2019-04-13 09:24:40 22.4 18 23.3
002F8D55 2019-04-13 08:52:57 22.4 18 23.5
002F8D55 2019-04-13 08:21:12 22.4 18 23.5
002F8D55 2019-04-13 07:49:28 22.5 18 23.5
002F8D55 2019-04-13 07:17:42 22.4 18 23.5
002F8D55 2019-04-13 06:45:58 22.5 18 23.5
002F8D55 2019-04-13 06:14:14 22.5 18 23.7
002F8D55 2019-04-13 05:42:28 22.5 18 24.3
002F8D55 2019-04-13 05:10:44 22.5 18 24.6
002F8D55 2019-04-13 04:38:59 22.5 18 24.7
002F8D55 2019-04-13 04:07:14 22.6 18 24.6
002F8D55 2019-04-13 03:35:29 22.6 18 25
002F8D55 2019-04-13 03:03:44 22.7 18 25.4
002F8D55 2019-04-13 02:31:58 22.7 18 25.8
002F8D55 2019-04-13 02:00:11 22.6 18 25.8
002F8D55 2019-04-13 01:28:26 22.6 18 25.9
002F8D55 2019-04-13 00:56:40 22.7 19 25.9
002F8D55 2019-04-13 00:24:56 22.7 19 26
002F8D55 2019-04-12 23:53:09 22.8 19 26.2
002F8D55 2019-04-12 23:21:24 22.8 19 25.9
002F8D55 2019-04-12 22:49:38 22.8 19 26.1
002F8D55 2019-04-12 22:17:51 22.8 19 26.2
002F8D55 2019-04-12 21:46:05 22.9 19 26.3
002F8D55 2019-04-12 21:14:18 23 19 26.5
002F8D55 2019-04-12 20:42:34 23 19 26.6
002F8D55 2019-04-12 20:10:48 23 19 26.8
002F8D55 2019-04-12 19:39:02 23 19 26.9
002F8D55 2019-04-12 19:07:18 23 18 27
002F8D55 2019-04-12 18:35:34 23.1 17 27.2
002F8D55 2019-04-12 18:03:49 23.3 18 27.3
002F8D55 2019-04-12 17:32:04 23.3 18 27.6
002F8D55 2019-04-12 17:00:19 23.2 19 27.9
002F8D55 2019-04-12 16:28:33 23.2 19 27.4
002F8D55 2019-04-12 15:56:49 23 19 27.6
002F8D55 2019-04-12 15:25:04 22.9 19 27.9
002F8D55 2019-04-12 14:53:17 22.8 19 28.8
002F8D55 2019-04-12 14:21:31 22.4 20 28.3
002F8D55 2019-04-12 13:49:44 22.1 21 27.2
002F8D55 2019-04-12 13:17:57 21.3 23 15.7